Flag for China Weather past 2 weeks in Shanghai, Shanghai Municipality, China

Now
73 °F

Passing clouds.


Feels Like: 74 °F
Forecast: 72 / 76 °F
Wind: 10 mph from Northeast

Location: Shanghai Hongqiao Airport

Current Time: Sep 22, 2014 at 12:59:38 AM

Latest Report: Sep 22, 2014 at 12:30 AM


Visibility: N/A

Pressure: 29.95 "Hg

Humidity: 78%

Dew point: 66 °F

Location of ShanghaiLocation

Historic Weather in Shanghai — Graph

°F

Shanghai temperature yesterday

Maximum temperature yesterday: 82 °F (at 12:30 PM)
Minimum temperature yesterday: 70 °F (at 1:30 AM)
Average temperature yesterday: 76 °F

Past Weeks' High & Low Weather Summary

 TemperatureHumidityPressure
High88 °F (Sep 7, 1:30 PM)100% (Sep 13, 1:00 AM)30.04 "Hg (Sep 13, 1:00 AM)
Low64 °F (Sep 19, 8:30 AM)45% (Sep 11, 12:30 PM)29.71 "Hg (Sep 8, 4:30 PM)
Average76 °F75%29.88 "Hg
* Reported Midnight between Sep 6 and Sep 7 — Midnight between Sep 21 and Sep 22, Shanghai, Weather by CustomWeather, © 2014

Note: Actual official high and low records may vary slightly from our data, if they occured in-between our weather recording intervals... More about our weather records

Advertising

Shanghai weather history for previous 24 hours

 ConditionsComfort  
Time TempWeatherWind HumidityBarometerVisibility
12:00 AM
Sep 22
73 °FPassing clouds.10 mph78%29.95 "HgN/A
11:30 PM
Sep 21
73 °FPassing clouds.10 mph78%29.95 "HgN/A
11:00 PM73 °FPassing clouds.13 mph74%29.95 "HgN/A
10:30 PM73 °FPassing clouds.13 mph74%29.95 "HgN/A
10:00 PM75 °FPassing clouds.13 mph69%29.95 "HgN/A
9:30 PM73 °FPassing clouds.10 mph74%29.95 "HgN/A
9:00 PM75 °FPassing clouds.10 mph69%29.98 "HgN/A
8:30 PM75 °FPassing clouds.15 mph69%29.95 "HgN/A
8:00 PM75 °FPassing clouds.15 mph69%29.95 "HgN/A
7:30 PM75 °FPassing clouds.13 mph69%29.95 "HgN/A
7:00 PM75 °FPassing clouds.15 mph69%29.92 "HgN/A
6:30 PM75 °FPassing clouds.17 mph69%29.92 "HgN/A
6:00 PM75 °FPassing clouds.17 mph65%29.92 "HgN/A
5:30 PM75 °FScattered clouds.17 mph65%29.89 "HgN/A
5:00 PM77 °FPassing clouds.15 mph65%29.92 "HgN/A
4:30 PM77 °FPassing clouds.15 mph61%29.92 "HgN/A
4:00 PM79 °FSunny.15 mph54%29.92 "Hg10 mi
3:30 PM79 °FSunny.20 mph51%29.89 "Hg10 mi
3:00 PM81 °FSunny.20 mph54%29.89 "Hg10 mi
2:30 PM82 °FPassing clouds.22 mph45%29.89 "HgN/A
2:00 PM81 °FPassing clouds.17 mph54%29.89 "HgN/A
1:30 PM82 °FScattered clouds.20 mph51%29.92 "HgN/A
1:00 PM82 °FScattered clouds.15 mph51%29.92 "HgN/A
12:30 PM82 °FPartly sunny.15 mph51%29.92 "HgN/A
12:00 PM81 °FScattered clouds.20 mph54%29.92 "HgN/A
11:30 AM81 °FPassing clouds.17 mph58%29.92 "HgN/A
11:00 AM81 °FPassing clouds.13 mph58%29.95 "HgN/A
10:30 AM79 °FPassing clouds.15 mph61%29.95 "HgN/A
10:00 AM79 °FPassing clouds.15 mph61%29.95 "HgN/A
9:30 AM79 °FScattered clouds.13 mph70%29.95 "HgN/A
9:00 AM77 °FPassing clouds.13 mph69%29.95 "HgN/A
8:30 AM77 °FPassing clouds.13 mph69%29.95 "HgN/A
8:00 AM77 °FScattered clouds.15 mph69%29.95 "HgN/A
7:30 AM73 °FPassing clouds.10 mph83%29.92 "HgN/A
7:00 AM72 °FPassing clouds.8 mph88%29.92 "HgN/A
6:30 AM72 °FPassing clouds.6 mph88%29.92 "HgN/A
6:00 AM72 °FSunny.6 mph83%29.89 "Hg10 mi
5:30 AM70 °FClear.6 mph94%29.89 "Hg10 mi
4:30 AM72 °FClear.8 mph88%29.89 "Hg10 mi
4:00 AM72 °FClear.8 mph88%29.86 "Hg10 mi
3:30 AM72 °FPassing clouds.8 mph88%29.86 "HgN/A
3:00 AM70 °FClear.6 mph94%29.86 "Hg10 mi
2:30 AM70 °FClear.6 mph94%29.86 "Hg10 mi
2:00 AM70 °FClear.6 mph88%29.89 "Hg10 mi
1:30 AM70 °FClear.3 mph88%29.89 "Hg10 mi
Weather by CustomWeather, © 2014

See weather overviewHow to use our weather pages